Weather History for Borger, TX

Change the Weather History Date:

Friday, December 20, 2013

  Actual Average Record
Temperature  
Mean Temperature 38 °F 37 °F  
Max Temperature 53 °F 49 °F 72 °F (1954)
Min Temperature 23 °F 26 °F 6 °F (1983)
Degree Days  
Heating Degree Days 27 28  
Month to date heating degree days 520 514  
Since 1 July heating degree days 1234 1231  
Cooling Degree Days 0 0  
Month to date cooling degree days 0 0  
Year to date cooling degree days 2220 1839  
Moisture  
Dew Point 18 °F    
Average Humidity 51    
Maximum Humidity 75    
Minimum Humidity 27    
Precipitation  
Precipitation 0.00 in 0.03 in 0.63 in (2006)
Month to date precipitation T 0.39  
Year to date precipitation 14.93 21.34  
Snow  
Snow 0.00 in - - ()
Month to date snowfall T  
Since 1 July snowfall 3.8  
Snow Depth 0.00 in    
Sea Level Pressure  
Sea Level Pressure 29.86 in    
Wind  
Wind Speed 9 mph (NNE)    
Max Wind Speed 28 mph    
Max Gust Speed 33 mph    
Visibility 10 miles    
Events      
T = Trace of Precipitation, MM = Missing Value Source: NWS Daily Summary

Daily Weather History Graph

Daily Weather History Graph

Search for Another Location

Airport:

Trip Planner

Search our weather history database for the weather conditions in past years. The results will help you decide how hot, cold, wet, or windy it might be!

Date:

Astronomy

Dec. 20, 2013 Rise Set
Actual Time 7:51 AM CST 5:35 PM CST
Civil Twilight 7:22 AM CST 6:04 PM CST
Nautical Twilight 6:50 AM CST 6:36 PM CST
Astronomical Twilight 6:19 AM CST 7:07 PM CST
Moon 8:52 PM CST (12/20) 9:51 AM CST (12/20)
Length of Visible Light 10h 41m
Length of Day
9h 44m
Waning Gibbous, 90% of the Moon is Illuminated
Dec 20
Waning Gibbous
Dec 25
Last Quarter
Jan 1
New
Jan 7
First Quarter
Jan 15
Full

Hourly Weather History & Observations

Time (CST) Temp. Windchill Dew Point Humidity Pressure Visibility Wind Dir Wind Speed Gust Speed Precip Events Conditions
12:22 AM 37.9 °F 28.5 °F 25.0 °F 60% 29.78 in 10.0 mi North 17.3 mph 31.1 mph N/A   Clear
12:51 AM 35.1 °F 25.2 °F 27.0 °F 72% 29.78 in 10.0 mi North 16.1 mph - N/A   Clear
1:09 AM 34.0 °F 23.4 °F 26.1 °F 73% 29.83 in 10.0 mi NNE 17.3 mph - N/A   Mostly Cloudy
1:51 AM 30.9 °F 17.8 °F 23.0 °F 72% 29.83 in 10.0 mi North 23.0 mph 29.9 mph N/A   Overcast
2:24 AM 28.9 °F 16.9 °F 21.9 °F 75% 29.88 in 9.0 mi North 17.3 mph - N/A   Overcast
2:40 AM 28.9 °F 17.3 °F 21.9 °F 75% 29.88 in 9.0 mi North 16.1 mph - N/A   Overcast
2:51 AM 28.9 °F 18.2 °F 21.9 °F 75% 29.84 in 9.0 mi North 13.8 mph - N/A   Overcast
3:51 AM 30.0 °F 19.1 °F 21.0 °F 69% 29.85 in 10.0 mi North 15.0 mph - N/A   Overcast
4:08 AM 30.0 °F 18.3 °F 21.0 °F 69% 29.89 in 10.0 mi North 17.3 mph - N/A   Overcast
4:51 AM 30.0 °F 18.3 °F 21.0 °F 69% 29.86 in 10.0 mi North 17.3 mph - N/A   Overcast
5:51 AM 28.9 °F 17.3 °F 19.0 °F 67% 29.87 in 10.0 mi North 16.1 mph - N/A   Overcast
6:51 AM 27.0 °F 16.7 °F 17.1 °F 66% 29.90 in 10.0 mi North 11.5 mph - N/A   Overcast
7:12 AM 26.1 °F 16.2 °F 16.0 °F 66% 29.92 in 10.0 mi NNE 10.4 mph - N/A   Scattered Clouds
7:51 AM 24.1 °F 15.2 °F 15.1 °F 69% 29.93 in 10.0 mi NE 8.1 mph - N/A   Clear
8:51 AM 24.1 °F 15.2 °F 15.1 °F 69% 29.96 in 10.0 mi NNE 8.1 mph - N/A   Clear
9:51 AM 24.1 °F 11.0 °F 12.9 °F 62% 29.96 in 10.0 mi North 16.1 mph - N/A   Clear
10:51 AM 26.1 °F 13.6 °F 12.0 °F 55% 29.92 in 10.0 mi North 16.1 mph - N/A   Clear
11:51 AM 28.0 °F 22.8 °F 12.9 °F 53% 29.94 in 10.0 mi Variable 4.6 mph - N/A   Clear
12:51 PM 30.0 °F 25.2 °F 12.9 °F 49% 29.93 in 10.0 mi NNE 4.6 mph - N/A   Clear
1:51 PM 30.0 °F 24.1 °F 12.9 °F 49% 29.90 in 10.0 mi Variable 5.8 mph - N/A   Mostly Cloudy
2:51 PM 30.9 °F 26.2 °F 14.0 °F 50% 29.89 in 10.0 mi Variable 4.6 mph - N/A   Clear
3:51 PM 32.0 °F 27.5 °F 14.0 °F 48% 29.82 in 10.0 mi NE 4.6 mph - N/A   Clear
4:51 PM 32.0 °F 27.5 °F 14.0 °F 48% 29.82 in - East 4.6 mph - N/A   Clear
5:51 PM 30.9 °F 27.5 °F 14.0 °F 50% 29.81 in 10.0 mi Variable 3.5 mph - N/A   Clear
6:51 PM 30.9 °F 24.3 °F 15.1 °F 52% 29.81 in 10.0 mi SE 6.9 mph - N/A   Scattered Clouds
7:51 PM 30.9 °F 24.3 °F 15.1 °F 52% 29.82 in 10.0 mi South 6.9 mph - N/A   Partly Cloudy
8:51 PM 30.9 °F - 16.0 °F 54% 29.83 in 10.0 mi Calm Calm - N/A   Clear
9:51 PM 30.9 °F 25.2 °F 16.0 °F 54% 29.84 in 10.0 mi NE 5.8 mph - N/A   Mostly Cloudy
10:17 PM 30.9 °F 25.2 °F 16.0 °F 54% 29.78 in 10.0 mi NE 5.8 mph - N/A   Overcast
10:51 PM 30.9 °F 25.2 °F 16.0 °F 54% 29.83 in 10.0 mi ESE 5.8 mph - N/A   Overcast
11:51 PM 32.0 °F 27.5 °F 17.1 °F 54% 29.78 in 10.0 mi ENE 4.6 mph - N/A   Overcast